Regional Weather Roundup
Issued by NWS Burlington, VT

Home | Current Version | Previous Version | Text Only | Print | Product List | Glossary On
Versions: 1 2 3 4 5 6 7 8 9 10 11 12 13 14 15 16 17 18 19 20 21 22 23 24 25 26 27 28 29 30 31 32 33 34 35 36 37 38 39 40 41 42 43 44 45 46 47 48 49 50
000
ASUS41 KBTV 300830
RWRBTV
VERMONT REGIONAL WEATHER ROUNDUP
NATIONAL WEATHER SERVICE BURLINGTON VT
400 AM EDT TUE JUN 30 2015

NOTE: "FAIR" INDICATES FEW OR NO CLOUDS BELOW 12,000 FEET WITH NO
SIGNIFICANT WEATHER AND/OR OBSTRUCTIONS TO VISIBILITY.

* THESE REPORTS ARE NOT UNDER NWS QUALITY CONTROL AND/OR DO NOT
  REPORT WEATHER SUCH AS PRECIPITATION AND FOG.

VTZ001>019-300900-
_____VERMONT_____


CITY           SKY/WX    TMP DP  RH WIND       PRES   REMARKS
BURLINGTON     PTCLDY    56  53  90 CALM      29.95R
MORRISVILLE    FOG       54  52  93 CALM      29.97S VSB 3/4
ST. JOHNSBURY*   N/A     57  54  89 MISG      29.95R
LYNDONVILLE*   FAIR      53  52  96 CALM      29.98R FOG
MIDDLEBURY*    FAIR      58  58 100 CALM      29.96R
RUTLAND*       CLOUDY    57  52  82 SE5       29.98S
SPRINGFIELD    FOG       56  55  97 CALM      29.98R VSB 3/4
HIGHGATE*      FAIR      56  55  96 S5        29.93R
NEWPORT*       FAIR      52  51  98 S5        29.96R
BENNINGTON     PTCLDY    51  50  96 CALM      29.98S FOG
MT. MANSFIELD*   N/A     48 N/A N/A N14         N/A

_____LAKE CHAMPLAIN_____


CITY           SKY/WX    TMP DP  RH WIND       PRES   REMARKS
BURTON ISLAND*   N/A     63  59  88 SE9         N/A
COLCHESTER RF*   N/A     61  61 100 SW14        N/A
DIAMOND ISL*     N/A     59  59 100 S6          N/A

$$

NYZ007-026>031-035-052-083-300900-
_____NORTHERN NEW YORK_____


CITY           SKY/WX    TMP DP  RH WIND       PRES   REMARKS
PLATTSBURGH    PTCLDY    55  53  93 SW5       29.93R
SARANAC LAKE   FOG       44  44 100 CALM      29.96S VSB 1/4
MASSENA        CLEAR     54  52  93 CALM      29.92S
OGDENSBURG*    CLEAR     55  54  94 CALM      29.91F
POTSDAM*       CLEAR     55  55 100 SW3       29.92F
WATERTOWN      CLEAR     50  49  96 CALM      29.91F
FT DRUM        CLEAR     55  53  94 SE12      29.92F
ALBANY         PTCLDY    60  56  86 CALM      29.96S
GLENS FALLS    MOCLDY    58  55  90 CALM      29.96R

$$
NHZ002-005-011-300900-
_____NEW HAMPSHIRE_____


CITY           SKY/WX    TMP DP  RH WIND       PRES   REMARKS
LEBANON        MOCLDY    56  54  93 S3        29.96S
KEENE          CLEAR     55  52  88 CALM      29.98R
MT WASHINGTON  FOG       41  41 100 NW13        N/A  VSB 1/16
PLYMOUTH       FOG       55  55 100 CALM      29.96S VSB 1
WHITEFIELD     CLOUDY    56  54  93 W3        29.97R

$$

_____REGIONAL QUEBEC LOCATIONS_____


CITY           SKY/WX    TMP DP  RH WIND       PRES   REMARKS
MONTREAL       PTCLDY    57  55  94 SW7       29.91R
QUEBEC CITY    MOCLDY    55  54  94 W5        29.89R
SHERBROOKE     CLOUDY    55  54  94 S2        29.94R

_____REGIONAL ONTARIO LOCATIONS_____


CITY           SKY/WX    TMP DP  RH WIND       PRES   REMARKS
OTTAWA         PTCLDY    57  55  94 S6        29.90S

______KEY______
VSB  - VISIBILITY IN MILES
WCI  - WIND CHILL INDEX
HX   - HEAT INDEX
$$
NNNN



USA.gov is the U.S. government's official web portal to all federal, state and local government web resources and services.